sat.trackr.live / text

‹ back to catalog

GLOBAL-12

NORAD 49772 · 2021-115BA

PAYLOAD ACTIVE UNKNOWN

§ Identity

Operator
Country
US
Launch date
2021-12-02
Launch site
AFETR
Launch vehicle
Mass (kg)
RCS (m²)

External: N2YO · Heavens-Above · Gunter

§ Orbital elements

Epoch: 2026-09-12T13:09:36.357408Z

Period
92.38 min
Inclination
53.1968°
Eccentricity
0.0002289
Mean motion
15.58780387 rev/d
Perigee alt
389.6 km
Apogee alt
392.7 km
Semi-major
6,769.3 km
B*
4.5827e-4
RAAN
342.8730°
Arg perigee
355.6477°
Mean anomaly
4.4517°
Rev number
26,950

§ Raw data

GLOBAL-121 49772U 21115BA  26255.54833747  .00035664  00000+0  45827-3 0  99922 49772  53.1968 342.8730 0002289 355.6477   4.4517 15.58780387269503

JSON: /api/v1/satellites/49772 · /tle

For live sub-satellite position, see the globe view (requires WebGL).

§ Visibility from observer

Set your observer location to see the next 7 days of passes ≥ 10°. The values pass through the URL so the page stays shareable.

No JS? Fill the form by hand. The geolocation button needs JavaScript.

§ Radio — SatNOGS DB

ModeDescriptionDownlinkUplink
GMSK UHF Unknown 401.435 MHz

1 transmitter · refreshed weekly from db.satnogs.org